Regional Weather Roundup
Issued by NWS

Home | Current Version | Previous Version | Graphics & Text | Print | Product List | Glossary On
Versions: 1 2 3 4 5 6 7 8 9 10 11 12 13 14 15 16 17 18 19 20 21 22 23 24 25 26 27
000
ASUS45 KBOI 181410
RWRID

IDAHO REGIONAL WEATHER ROUNDUP
NATIONAL WEATHER SERVICE BOISE ID
700 AM MST SAT NOV 18 2017

NOTE: "FAIR" INDICATES FEW OR NO CLOUDS BELOW 12000 FEET
WITH NO SIGNIFICANT WEATHER AND/OR OBSTRUCTIONS TO VISIBILITY

IDZ012-014-181500-
SOUTHWEST IDAHO


CITY           SKY/WX    TMP DP  RH WIND       PRES   REMARKS
BOISE          PTCLDY    31  23  72 SE9       30.39S WCI  23
CALDWELL       PTCLDY    25  22  88 E5        30.42S WCI  19
MOUNTAIN HOME  CLEAR     23  23 100 E3        30.40S
$$

IDZ016-017-181500-
SOUTHCENTRAL IDAHO


CITY           SKY/WX    TMP DP  RH WIND       PRES   REMARKS
BURLEY         CLEAR     27  19  72 SW12      30.38S WCI  17
JEROME         CLEAR     27  20  75 SE8       30.39R WCI  19
TWIN FALLS     PTCLDY    27  19  72 S10       30.38S WCI  17
$$

IDZ019>023-181500-
SOUTHEAST IDAHO


CITY           SKY/WX    TMP DP  RH WIND       PRES   REMARKS
IDAHO FALLS    CLOUDY    25  21  85 S13       30.38R WCI  14
POCATELLO      PTCLDY    26  19  74 SW9       30.40R WCI  17
REXBURG        CLOUDY    25  19  78 S10       30.36R WCI  15
$$

IDZ006-010-011-018-031-032-181500-
CENTRAL IDAHO MOUNTAINS


CITY           SKY/WX    TMP DP  RH WIND       PRES   REMARKS
MCCALL         MOCLDY    16  12  84 CALM      30.32R
HAILEY         PTCLDY    19  10  68 W12       30.35S WCI   7
STANLEY          N/A      1  -3  83 CALM      30.35R
SALMON         CLOUDY    23  17  78 N3        30.36R
CHALLIS        CLEAR     19  11  70 CALM      30.35S
$$

IDZ002-004-006-007-026-181500-
NORTHERN IDAHO


CITY           SKY/WX    TMP DP  RH WIND       PRES   REMARKS
LEWISTON       CLOUDY    36  32  85 CALM      30.36R
LOWELL           N/A     37  35  92 CALM      30.41S
COEUR D`ALENE  MOCLDY    30  28  92 CALM      30.31R
MULLAN PASS    CLOUDY    22  20  92 VRB7      30.18R WCI  13
$$




USA.gov is the U.S. government's official web portal to all federal, state and local government web resources and services.